Погода в Белорецке

Россия / Республика Башкортостан     53°58′03″N   58°24′36″E
темп.,
°C
ветер,
м/с
пор.,
м/с
влажн.,
%
обл.,
%
осадки,
мм/ч
давл.,
гПа
погр.,
м
17 мая, пн
пн1723:00+14ссз11789 2.3 102211
02:00+16сз116592 0.0 102211
05:00+13з11760 0.0 102313
08:00+19юз12584 0.0 1022117
11:00+25зюз46327 0.0 10212363
14:00+27зюз462487 0.0 10203748
17:00+26зсз552828 0.0 10192935
20:00+19з235974 0.4 102089
18 мая, вт
вт1823:00+14зюз226876 0.6 102122
02:00+13з226695 0.0 102015
05:00+13з226767 0.0 102015
08:00+19зюз24515 0.0 1019180
11:00+25з46325 0.0 10172297
14:00+26зсз572898 0.0 10163189
17:00+25сз673413 0.0 10152896
20:00+21ссз3849100 0.0 1017331
19 мая, ср
ср1923:00+14ссв37665 0.0 1018121
02:00+12всв410805 0.0 1021515
05:00+8св25974 0.0 1023155
08:00+10всв477551 0.0 1023670
11:00+14всв57550 0.0 1023866
14:00+18в57415 0.0 10221290
17:00+18в45380 0.0 10221354
20:00+15в37535 0.0 1023314
20 мая, чт
чт2023:00+9св226969 0.0 102530
02:00+8св22755 0.0 102629
05:00+6ссв22800 0.0 102618
08:00+13всв13532 0.0 1026371
11:00+17вюв33370 0.0 10251157
14:00+20юв333125 0.0 10241635
17:00+20юв22302 0.0 10231597
20:00+16ююв11480 0.0 102311
21 мая, пт
пт2123:00+11юз005615 0.0 102410
02:00+10з11617 0.0 102410
05:00+9ссз0062100 0.0 102510
08:00+15юз014773 0.0 1024148
11:00+21ю113099 0.0 10231491
14:00+23ююв322649 0.0 10221966
17:00+23ююв32284 0.0 10211833
20:00+18ю11471 0.0 102211